Time,TemperatureF,DewpointF,PressureIn,WindDirection,WindDirectionDegrees,WindSpeedMPH,WindSpeedGustMPH,Humidity,HourlyPrecipIn,Conditions,Clouds,dailyrainin,SoftwareType,DateUTC
2013-01-27 00:01:00,45.0,30.0,29.82,ENE,59,6.0,10.0,56,0.00,,,0.00,,2013-01-26 23:01:00,
2013-01-27 00:11:00,45.0,30.0,29.82,ENE,59,6.0,10.0,56,0.00,,,0.00,,2013-01-26 23:11:00,
2013-01-27 00:21:00,45.0,31.0,29.82,ENE,77,7.0,8.0,57,0.00,,,0.00,,2013-01-26 23:21:00,
2013-01-27 00:32:00,45.0,31.0,29.82,ENE,59,3.0,7.0,58,0.00,,,0.00,,2013-01-26 23:32:00,
2013-01-27 00:41:00,45.0,31.0,29.82,ENE,59,3.0,7.0,58,0.00,,,0.00,,2013-01-26 23:41:00,
2013-01-27 00:52:00,45.0,31.0,29.82,NE,44,4.0,5.0,58,0.00,,,0.00,,2013-01-26 23:52:00,
2013-01-27 01:01:00,45.0,31.0,29.82,NE,36,4.0,8.0,58,0.00,,,0.00,,2013-01-27 00:01:00,
2013-01-27 01:11:00,45.0,31.0,29.82,NE,36,4.0,8.0,58,0.00,,,0.00,,2013-01-27 00:11:00,
2013-01-27 01:21:00,46.0,31.0,29.83,NE,47,6.0,12.0,55,0.00,,,0.00,,2013-01-27 00:21:00,
2013-01-27 01:31:00,46.0,31.0,29.83,NE,49,4.0,9.0,56,0.00,,,0.00,,2013-01-27 00:31:00,
2013-01-27 01:41:00,46.0,31.0,29.83,NE,49,4.0,9.0,56,0.00,,,0.00,,2013-01-27 00:41:00,
2013-01-27 01:51:00,46.0,31.0,29.83,ENE,78,7.0,10.0,56,0.00,,,0.00,,2013-01-27 00:51:00,
2013-01-27 02:01:00,46.0,31.0,29.83,ENE,61,4.0,10.0,55,0.00,,,0.00,,2013-01-27 01:01:00,
2013-01-27 02:11:00,46.0,31.0,29.83,ENE,61,4.0,10.0,55,0.00,,,0.00,,2013-01-27 01:11:00,
2013-01-27 02:21:00,46.0,31.0,29.84,ENE,63,3.0,8.0,55,0.00,,,0.00,,2013-01-27 01:21:00,
2013-01-27 02:31:00,45.0,31.0,29.84,NE,47,9.0,9.0,57,0.00,,,0.00,,2013-01-27 01:31:00,
2013-01-27 02:41:00,45.0,31.0,29.84,NE,47,9.0,9.0,57,0.00,,,0.00,,2013-01-27 01:41:00,
2013-01-27 02:52:00,43.0,32.0,29.85,NNE,26,5.0,8.0,64,0.00,,,0.00,,2013-01-27 01:52:00,
2013-01-27 03:01:00,45.0,32.0,29.85,NE,45,9.0,10.0,60,0.00,,,0.00,,2013-01-27 02:01:00,
2013-01-27 03:11:00,45.0,32.0,29.85,NE,45,9.0,10.0,60,0.00,,,0.00,,2013-01-27 02:11:00,
2013-01-27 03:21:00,44.0,31.0,29.85,NE,53,3.0,11.0,61,0.00,,,0.00,,2013-01-27 02:21:00,
2013-01-27 03:31:00,44.0,31.0,29.85,ENE,62,3.0,10.0,61,0.00,,,0.00,,2013-01-27 02:31:00,
2013-01-27 03:41:00,44.0,31.0,29.85,ENE,62,3.0,10.0,61,0.00,,,0.00,,2013-01-27 02:41:00,
2013-01-27 03:52:00,44.0,31.0,29.85,East,91,7.0,12.0,60,0.00,,,0.00,,2013-01-27 02:52:00,
2013-01-27 04:01:00,44.0,32.0,29.86,ENE,69,4.0,6.0,62,0.00,,,0.00,,2013-01-27 03:01:00,
2013-01-27 04:11:00,44.0,32.0,29.86,ENE,69,4.0,6.0,62,0.00,,,0.00,,2013-01-27 03:11:00,
2013-01-27 04:21:00,44.0,31.0,29.86,NE,42,5.0,10.0,60,0.00,,,0.00,,2013-01-27 03:21:00,
2013-01-27 04:31:00,44.0,31.0,29.86,NE,54,10.0,11.0,61,0.00,,,0.00,,2013-01-27 03:31:00,
2013-01-27 04:41:00,44.0,31.0,29.86,NE,54,10.0,11.0,61,0.00,,,0.00,,2013-01-27 03:41:00,
2013-01-27 04:51:00,45.0,32.0,29.86,NE,44,7.0,12.0,59,0.00,,,0.00,,2013-01-27 03:51:00,
2013-01-27 05:01:00,46.0,31.0,29.86,NE,46,12.0,16.0,56,0.00,,,0.00,,2013-01-27 04:01:00,
2013-01-27 05:11:00,46.0,31.0,29.86,NE,46,12.0,16.0,56,0.00,,,0.00,,2013-01-27 04:11:00,
2013-01-27 05:21:00,46.0,30.0,29.86,East,80,5.0,17.0,53,0.00,,,0.00,,2013-01-27 04:21:00,
2013-01-27 05:31:00,46.0,29.0,29.86,ENE,73,14.0,14.0,52,0.00,,,0.00,,2013-01-27 04:31:00,
2013-01-27 05:41:00,46.0,29.0,29.86,ENE,73,14.0,14.0,52,0.00,,,0.00,,2013-01-27 04:41:00,
2013-01-27 05:52:00,45.0,30.0,29.87,West,277,3.0,5.0,56,0.00,,,0.00,,2013-01-27 04:52:00,
2013-01-27 06:02:00,45.0,31.0,29.87,West,277,1.0,3.0,57,0.00,,,0.00,,2013-01-27 05:02:00,
2013-01-27 06:11:00,45.0,31.0,29.87,West,277,1.0,3.0,57,0.00,,,0.00,,2013-01-27 05:11:00,
2013-01-27 06:22:00,44.0,31.0,29.88,NNE,29,3.0,4.0,59,0.00,,,0.00,,2013-01-27 05:22:00,
2013-01-27 06:31:00,43.0,30.0,29.88,NNE,29,5.0,7.0,61,0.00,,,0.00,,2013-01-27 05:31:00,
2013-01-27 06:41:00,43.0,30.0,29.88,NNE,29,5.0,7.0,61,0.00,,,0.00,,2013-01-27 05:41:00,
2013-01-27 06:52:00,42.0,31.0,29.88,NE,50,6.0,8.0,64,0.00,,,0.00,,2013-01-27 05:52:00,
2013-01-27 07:01:00,44.0,30.0,29.88,NE,53,10.0,11.0,58,0.00,,,0.00,,2013-01-27 06:01:00,
2013-01-27 07:11:00,44.0,30.0,29.88,NE,53,10.0,11.0,58,0.00,,,0.00,,2013-01-27 06:11:00,
2013-01-27 07:21:00,44.0,30.0,29.88,NE,42,3.0,10.0,58,0.00,,,0.00,,2013-01-27 06:21:00,
2013-01-27 07:31:00,45.0,31.0,29.88,NE,38,4.0,9.0,58,0.00,,,0.00,,2013-01-27 06:31:00,
2013-01-27 07:41:00,45.0,31.0,29.88,NE,38,4.0,9.0,58,0.00,,,0.00,,2013-01-27 06:41:00,
2013-01-27 07:52:00,45.0,31.0,29.89,NE,45,10.0,10.0,58,0.00,,,0.00,,2013-01-27 06:52:00,
2013-01-27 08:01:00,45.0,31.0,29.89,NE,51,10.0,12.0,58,0.00,,,0.00,,2013-01-27 07:01:00,
2013-01-27 08:13:00,45.0,31.0,29.89,NE,51,10.0,12.0,58,0.00,,,0.00,,2013-01-27 07:13:00,
2013-01-27 08:21:00,43.0,30.0,29.90,NE,40,5.0,8.0,61,0.00,,,0.00,,2013-01-27 07:21:00,
2013-01-27 08:31:00,42.0,31.0,29.91,NNE,24,7.0,8.0,65,0.00,,,0.00,,2013-01-27 07:31:00,
2013-01-27 08:41:00,42.0,31.0,29.91,NNE,24,7.0,8.0,65,0.00,,,0.00,,2013-01-27 07:41:00,
2013-01-27 08:52:00,43.0,32.0,29.91,NNE,20,9.0,10.0,65,0.00,,,0.00,,2013-01-27 07:52:00,
2013-01-27 09:01:00,45.0,33.0,29.91,NE,38,10.0,11.0,62,0.00,,,0.00,,2013-01-27 08:01:00,
2013-01-27 09:11:00,45.0,33.0,29.91,NE,38,10.0,11.0,62,0.00,,,0.00,,2013-01-27 08:11:00,
2013-01-27 09:21:00,46.0,32.0,29.92,NNE,20,6.0,9.0,59,0.00,,,0.00,,2013-01-27 08:21:00,
2013-01-27 09:31:00,45.0,32.0,29.92,NNE,15,3.0,9.0,61,0.00,,,0.00,,2013-01-27 08:31:00,
2013-01-27 09:41:00,45.0,32.0,29.92,NNE,15,3.0,9.0,61,0.00,,,0.00,,2013-01-27 08:41:00,
2013-01-27 09:52:00,45.0,33.0,29.93,NNE,28,2.0,10.0,62,0.00,,,0.00,,2013-01-27 08:52:00,
2013-01-27 10:02:00,46.0,34.0,29.93,NNE,24,7.0,10.0,62,0.00,,,0.00,,2013-01-27 09:02:00,
2013-01-27 10:11:00,46.0,34.0,29.93,NNE,24,7.0,10.0,62,0.00,,,0.00,,2013-01-27 09:11:00,
2013-01-27 10:21:00,47.0,35.0,29.93,NE,39,7.0,8.0,62,0.00,,,0.00,,2013-01-27 09:21:00,
2013-01-27 10:31:00,48.0,35.0,29.94,NNE,28,5.0,7.0,60,0.00,,,0.00,,2013-01-27 09:31:00,
2013-01-27 10:41:00,48.0,35.0,29.94,NNE,28,5.0,7.0,60,0.00,,,0.00,,2013-01-27 09:41:00,
2013-01-27 10:51:00,48.0,34.0,29.94,NNE,26,3.0,8.0,58,0.00,,,0.00,,2013-01-27 09:51:00,
2013-01-27 11:01:00,49.0,35.0,29.94,North,10,3.0,6.0,58,0.00,,,0.00,,2013-01-27 10:01:00,
2013-01-27 11:11:00,50.0,34.0,29.94,North,5,4.0,8.0,54,0.00,,,0.00,,2013-01-27 10:11:00,
2013-01-27 11:21:00,50.0,34.0,29.94,North,5,4.0,8.0,54,0.00,,,0.00,,2013-01-27 10:21:00,
2013-01-27 11:31:00,50.0,34.0,29.94,North,355,6.0,8.0,54,0.00,,,0.00,,2013-01-27 10:31:00,
2013-01-27 11:41:00,50.0,34.0,29.94,North,355,6.0,8.0,54,0.00,,,0.00,,2013-01-27 10:41:00,
2013-01-27 11:52:00,50.0,32.0,29.94,NNE,12,3.0,8.0,50,0.00,,,0.00,,2013-01-27 10:52:00,
2013-01-27 12:01:00,51.0,33.0,29.94,NNE,12,1.0,3.0,50,0.00,,,0.00,,2013-01-27 11:01:00,
2013-01-27 12:11:00,51.0,30.0,29.93,ENE,64,3.0,6.0,45,0.00,,,0.00,,2013-01-27 11:11:00,
2013-01-27 12:21:00,51.0,30.0,29.93,ENE,64,3.0,6.0,45,0.00,,,0.00,,2013-01-27 11:21:00,
2013-01-27 12:31:00,52.0,32.0,29.93,NNE,18,2.0,5.0,46,0.00,,,0.00,,2013-01-27 11:31:00,
2013-01-27 12:41:00,52.0,32.0,29.93,NNE,18,2.0,5.0,46,0.00,,,0.00,,2013-01-27 11:41:00,
2013-01-27 12:52:00,52.0,31.0,29.93,WSW,257,4.0,6.0,45,0.00,,,0.00,,2013-01-27 11:52:00,
2013-01-27 13:02:00,52.0,32.0,29.93,WSW,239,6.0,7.0,47,0.00,,,0.00,,2013-01-27 12:02:00,
2013-01-27 13:11:00,52.0,32.0,29.93,WSW,239,6.0,7.0,47,0.00,,,0.00,,2013-01-27 12:11:00,
2013-01-27 13:21:00,52.0,33.0,29.93,West,259,5.0,7.0,49,0.00,,,0.00,,2013-01-27 12:21:00,
2013-01-27 13:32:00,52.0,33.0,29.94,SW,236,6.0,6.0,48,0.00,,,0.00,,2013-01-27 12:32:00,
2013-01-27 13:41:00,52.0,33.0,29.94,SW,236,6.0,6.0,48,0.00,,,0.00,,2013-01-27 12:41:00,
2013-01-27 13:52:00,52.0,32.0,29.93,SSW,212,6.0,8.0,47,0.00,,,0.00,,2013-01-27 12:52:00,
2013-01-27 14:01:00,52.0,34.0,29.93,SW,229,4.0,9.0,50,0.00,,,0.00,,2013-01-27 13:01:00,
2013-01-27 14:11:00,52.0,34.0,29.93,SW,229,4.0,9.0,50,0.00,,,0.00,,2013-01-27 13:11:00,
2013-01-27 14:22:00,52.0,34.0,29.93,WSW,247,4.0,8.0,50,0.00,,,0.00,,2013-01-27 13:22:00,
2013-01-27 14:31:00,53.0,36.0,29.93,WSW,252,7.0,9.0,52,0.00,,,0.00,,2013-01-27 13:31:00,
2013-01-27 14:41:00,53.0,36.0,29.93,WSW,252,7.0,9.0,52,0.00,,,0.00,,2013-01-27 13:41:00,
2013-01-27 14:52:00,52.0,34.0,29.93,West,273,3.0,10.0,51,0.00,,,0.00,,2013-01-27 13:52:00,
2013-01-27 15:01:00,52.0,35.0,29.93,West,261,6.0,12.0,52,0.00,,,0.00,,2013-01-27 14:01:00,
2013-01-27 15:11:00,52.0,35.0,29.93,West,261,6.0,12.0,52,0.00,,,0.00,,2013-01-27 14:11:00,
2013-01-27 15:21:00,52.0,35.0,29.93,West,276,3.0,9.0,53,0.00,,,0.00,,2013-01-27 14:21:00,
2013-01-27 15:31:00,52.0,35.0,29.93,WSW,249,6.0,10.0,52,0.00,,,0.00,,2013-01-27 14:31:00,
2013-01-27 15:42:00,52.0,35.0,29.93,WSW,249,6.0,10.0,52,0.00,,,0.00,,2013-01-27 14:42:00,
2013-01-27 15:52:00,51.0,34.0,29.93,WNW,283,7.0,11.0,52,0.00,,,0.00,,2013-01-27 14:52:00,
2013-01-27 16:01:00,52.0,36.0,29.93,West,267,7.0,9.0,54,0.00,,,0.00,,2013-01-27 15:01:00,
2013-01-27 16:11:00,52.0,36.0,29.93,West,267,7.0,9.0,54,0.00,,,0.00,,2013-01-27 15:11:00,
2013-01-27 16:21:00,51.0,35.0,29.94,WNW,292,5.0,10.0,54,0.00,,,0.00,,2013-01-27 15:21:00,
2013-01-27 16:31:00,51.0,35.0,29.94,WNW,300,4.0,11.0,55,0.00,,,0.00,,2013-01-27 15:31:00,
2013-01-27 16:42:00,51.0,35.0,29.94,WNW,300,4.0,11.0,55,0.00,,,0.00,,2013-01-27 15:42:00,
2013-01-27 16:52:00,51.0,36.0,29.94,WNW,291,1.0,9.0,56,0.00,,,0.00,,2013-01-27 15:52:00,
2013-01-27 17:01:00,50.0,35.0,29.94,NNW,327,2.0,6.0,57,0.00,,,0.00,,2013-01-27 16:01:00,
2013-01-27 17:11:00,50.0,35.0,29.94,NNW,327,2.0,6.0,57,0.00,,,0.00,,2013-01-27 16:11:00,
2013-01-27 17:21:00,50.0,37.0,29.95,WNW,298,3.0,6.0,60,0.00,,,0.00,,2013-01-27 16:21:00,
2013-01-27 17:31:00,49.0,37.0,29.95,NW,315,4.0,7.0,63,0.00,,,0.00,,2013-01-27 16:31:00,
2013-01-27 17:41:00,49.0,37.0,29.95,NW,315,4.0,7.0,63,0.00,,,0.00,,2013-01-27 16:41:00,
2013-01-27 17:52:00,48.0,37.0,29.95,NW,320,3.0,6.0,65,0.00,,,0.00,,2013-01-27 16:52:00,
2013-01-27 18:01:00,48.0,37.0,29.95,NW,314,1.0,5.0,65,0.00,,,0.00,,2013-01-27 17:01:00,
2013-01-27 18:11:00,48.0,37.0,29.95,NW,314,1.0,5.0,65,0.00,,,0.00,,2013-01-27 17:11:00,
2013-01-27 18:21:00,48.0,37.0,29.95,NNW,334,3.0,4.0,66,0.00,,,0.00,,2013-01-27 17:21:00,
2013-01-27 18:31:00,48.0,37.0,29.96,NNW,330,3.0,4.0,66,0.00,,,0.00,,2013-01-27 17:31:00,
2013-01-27 18:41:00,48.0,37.0,29.96,NNW,330,3.0,4.0,66,0.00,,,0.00,,2013-01-27 17:41:00,
2013-01-27 18:52:00,48.0,38.0,29.96,NNW,340,2.0,5.0,67,0.00,,,0.00,,2013-01-27 17:52:00,
2013-01-27 19:01:00,48.0,38.0,29.96,NNW,340,1.0,4.0,68,0.00,,,0.00,,2013-01-27 18:01:00,
2013-01-27 19:11:00,48.0,38.0,29.96,NNW,340,1.0,4.0,68,0.00,,,0.00,,2013-01-27 18:11:00,
2013-01-27 19:21:00,48.0,38.0,29.97,NNW,340,3.0,4.0,68,0.00,,,0.00,,2013-01-27 18:21:00,
2013-01-27 19:31:00,48.0,38.0,29.96,NNW,340,0.0,3.0,68,0.00,,,0.00,,2013-01-27 18:31:00,
2013-01-27 19:41:00,48.0,38.0,29.96,NNW,340,0.0,3.0,68,0.00,,,0.00,,2013-01-27 18:41:00,
2013-01-27 19:52:00,48.0,38.0,29.96,NNW,340,3.0,3.0,69,0.00,,,0.00,,2013-01-27 18:52:00,
2013-01-27 20:01:00,48.0,38.0,29.96,NNW,340,2.0,3.0,69,0.00,,,0.00,,2013-01-27 19:01:00,
2013-01-27 20:11:00,48.0,38.0,29.96,NNW,340,2.0,3.0,69,0.00,,,0.00,,2013-01-27 19:11:00,
2013-01-27 20:21:00,48.0,38.0,29.96,NNW,340,2.0,3.0,69,0.00,,,0.00,,2013-01-27 19:21:00,
2013-01-27 20:31:00,48.0,38.0,29.96,NNW,340,1.0,3.0,69,0.00,,,0.00,,2013-01-27 19:31:00,
2013-01-27 20:41:00,48.0,38.0,29.96,NNW,340,1.0,3.0,69,0.00,,,0.00,,2013-01-27 19:41:00,
2013-01-27 20:52:00,48.0,39.0,29.96,NNW,340,1.0,3.0,70,0.00,,,0.00,,2013-01-27 19:52:00,
2013-01-27 21:02:00,47.0,38.0,29.96,NNW,340,2.0,3.0,70,0.00,,,0.00,,2013-01-27 20:02:00,
2013-01-27 21:11:00,47.0,38.0,29.96,NNW,340,2.0,3.0,70,0.00,,,0.00,,2013-01-27 20:11:00,
2013-01-27 21:21:00,48.0,39.0,29.97,NNW,340,3.0,3.0,70,0.00,,,0.00,,2013-01-27 20:21:00,
2013-01-27 21:31:00,48.0,39.0,29.97,NNW,340,2.0,3.0,70,0.00,,,0.00,,2013-01-27 20:31:00,
2013-01-27 21:41:00,48.0,39.0,29.97,NNW,340,2.0,3.0,70,0.00,,,0.00,,2013-01-27 20:41:00,
2013-01-27 21:52:00,48.0,39.0,29.96,NNW,340,2.0,3.0,70,0.00,,,0.00,,2013-01-27 20:52:00,
2013-01-27 22:01:00,48.0,39.0,29.96,NNW,340,2.0,3.0,70,0.00,,,0.00,,2013-01-27 21:01:00,
2013-01-27 22:11:00,48.0,39.0,29.96,NNW,340,2.0,3.0,70,0.00,,,0.00,,2013-01-27 21:11:00,
2013-01-27 22:21:00,49.0,39.0,29.96,NNW,340,1.0,2.0,69,0.00,,,0.00,,2013-01-27 21:21:00,
2013-01-27 22:32:00,48.0,39.0,29.96,North,349,2.0,3.0,70,0.00,,,0.00,,2013-01-27 21:32:00,
2013-01-27 22:42:00,48.0,39.0,29.96,North,349,2.0,3.0,70,0.00,,,0.00,,2013-01-27 21:42:00,
2013-01-27 22:52:00,48.0,39.0,29.96,NNE,26,2.0,3.0,71,0.00,,,0.00,,2013-01-27 21:52:00,
2013-01-27 23:01:00,48.0,39.0,29.96,NNE,26,0.0,2.0,72,0.00,,,0.00,,2013-01-27 22:01:00,
2013-01-27 23:11:00,48.0,39.0,29.96,NNE,26,0.0,2.0,72,0.00,,,0.00,,2013-01-27 22:11:00,
2013-01-27 23:21:00,49.0,40.0,29.96,NNE,26,2.0,2.0,72,0.00,,,0.00,,2013-01-27 22:21:00,
2013-01-27 23:31:00,49.0,40.0,29.96,NNE,28,0.0,3.0,72,0.00,,,0.00,,2013-01-27 22:31:00,
2013-01-27 23:42:00,49.0,40.0,29.96,NNE,28,0.0,3.0,72,0.00,,,0.00,,2013-01-27 22:42:00,
2013-01-27 23:52:00,50.0,41.0,29.97,NE,42,2.0,3.0,71,0.00,,,0.00,,2013-01-27 22:52:00,